Location: Follega
(52.8850°N, 5.7362°E)
Time: 12:36:09
(UTC+00:00)

Cosmos 1766 - Pass Details

Date: 01 June 2020
Orbit: 522 x 544 km, 82.5° (Epoch: 11 July)

Event Time Altitude Azimuth Distance (km) Brightness Sun altitude
Rises 21:23:45 0° 347° (NNW) 2,712 8.5 -9.7°
Reaches altitude 10° 21:25:55 10° 344° (NNW) 1,818 7.4 -9.8°
Maximum altitude 21:29:53 67° 263° (W) 596 3.6 -10.1°
Enters shadow 21:33:39 11° 181° (S) 1,728 5.3 -10.4°
